Location: Vancouver
(49.2827°N, 123.1207°W)
Time: 01:28:58
(UTC-07:00)

Envisat - Pass Details

Date: 25 May 2024
Orbit: 762 x 764 km, 98.3° (Epoch: 19 June)

Event Time Altitude Azimuth Distance (km) Brightness Sun altitude
Rises 03:17:13 0° 27° (NNE) 3,239 8.2 -14.1°
Reaches altitude 10° 03:20:18 10° 47° (NE) 2,307 6.8 -13.9°
Maximum altitude 03:23:40 18° 89° (E) 1,828 5.4 -13.6°
Drops below altitude 10° 03:27:01 10° 131° (SE) 2,294 5.4 -13.3°
Sets 03:30:04 0° 150° (SSE) 3,214 6.0 -13.0°
